Tracking 23762 objects as of 20-Oct-2021
HD Live streaming from Space Station
objects crossing your sky now

CZ-3A DEB

Track CZ-3A DEB now!
10-day predictions


NORAD ID: 35547
Int'l Code: 2007-003F
Perigee: 439.9 km
Apogee: 12,931.0 km
Inclination: 24.5 °
Period: 247.5 minutes
Semi major axis: 13056 km
RCS: 0.0399 m2 (small)
Launch date: February 2, 2007
Source: People's Republic of China (PRC)
Launch site: Xichang Space Center, China (XSC)

Note: This is SATELLITE DEBRIS
aabbcc
Your satellite tracking list
Your tracking list is empty




NASA's NSSDC Master Catalog

Two Line Element Set (TLE):
1 35547U 07003F   21290.40968765  .00003387  00000-0  25330-2 0  9999
2 35547  24.5144  60.1722 4783506 240.9047  63.2645  5.81922651200583
Source of the keplerian elements: AFSPC